Waarnemingen

Advertentie
Mijn weer
Avignon, Frankrijk (7563): temperatuur & dauwpunt: 18.02.2017 16:00:00 - 24.02.2017 16:00:00 (CET)Avignon, Frankrijk (7563): temperatuur 5cm: 18.02.2017 16:00:00 - 24.02.2017 16:00:00 (CET)Avignon, Frankrijk (7563): windsnelheid & windstoten: 18.02.2017 16:00:00 - 24.02.2017 16:00:00 (CET)Avignon, Frankrijk (7563): windrichting: 18.02.2017 16:00:00 - 24.02.2017 16:00:00 (CET)Avignon, Frankrijk (7563): luchtdruk: 18.02.2017 16:00:00 - 24.02.2017 16:00:00 (CET)Avignon, Frankrijk (7563): zicht: 18.02.2017 16:00:00 - 24.02.2017 16:00:00 (CET)Avignon, Frankrijk (7563): neerslag: 18.02.2017 16:00:00 - 24.02.2017 16:00:00 (CET)
Datum & Tijd tt [°C] td [°C] tt 5cm [°C] ff [km/u] ff [kn] fx [km/u] fx [kn] dd ppp [hPa] vv [km] rr [mm]
24.02.2017 16:00:00 13,2 -2,3 15,8 45 24 77 41 N 1011,7 27 0,0
24.02.2017 15:00:00 13,6 -1,6 - 42 23 72 39 NNW 1011,3 35 0,0
24.02.2017 14:00:00 13,6 0,2 17,2 41 22 69 38 N 1011,4 47 0,0
24.02.2017 13:00:00 13,7 0,7 - 42 23 67 36 N 1011,8 60 -
24.02.2017 12:00:00 11,6 2,1 11,8 34 18 61 33 N 1012,9 37 0,0
24.02.2017 11:00:00 12,2 3,9 11,3 32 18 57 31 N 1012,5 60 0,0
24.02.2017 10:00:00 11,1 5,6 - 28 15 46 25 N 1012,1 40 -
24.02.2017 09:00:00 10,0 8,8 8,4 6 4 17 9 N 1012,2 7 0,0
24.02.2017 08:00:00 9,0 8,1 6,9 11 6 17 9 N 1012,1 4,4 0,0
24.02.2017 07:00:00 8,6 7,5 5,7 0 0 8 5 N 1012,0 2,8 0,0
24.02.2017 06:00:00 8,6 7,4 6,6 4 2 6 3 N 1012,3 4,2 0,0
24.02.2017 05:00:00 9,1 7,9 8,6 0 0 3 2 N 1012,3 5 0,0
24.02.2017 04:00:00 8,9 7,8 - 4 2 8 4 N 1012,2 5 -
24.02.2017 03:00:00 8,1 7,0 4,5 0 0 5 3 N 1012,8 7 0,0
24.02.2017 02:00:00 6,7 5,5 4,5 3 1 5 3 N 1013,1 5 0,0
24.02.2017 01:00:00 7,0 5,6 4,8 0 0 6 4 N 1013,9 10 0,0
24.02.2017 00:00:00 8,1 6,6 5,2 2 1 7 4 NNO 1013,8 13 0,0
23.02.2017 23:00:00 7,2 5,5 - 0 0 11 6 N 1013,7 10 0,0
23.02.2017 22:00:00 7,4 5,2 - 5 3 8 4 ZZO 1013,5 18 -
23.02.2017 21:00:00 9,7 7,5 5,9 0 0 10 6 N 1013,7 20 0,0
23.02.2017 20:00:00 10,4 6,3 6,8 5 3 17 9 Z 1013,3 20 0,0
23.02.2017 19:00:00 12,7 8,4 11,1 13 7 22 12 Z 1012,8 37 0,0
23.02.2017 18:00:00 14,7 8,2 13,3 11 6 24 13 ZZW 1012,5 40 0,0
23.02.2017 17:00:00 16,9 8,6 17,4 16 9 23 13 Z 1012,6 37 0,0
23.02.2017 16:00:00 18,6 8,5 22,0 14 7 26 14 Z 1013,1 49 0,0
23.02.2017 15:00:00 18,8 8,2 23,1 16 9 27 15 Z 1013,6 27 0,0
23.02.2017 14:00:00 18,8 8,4 22,9 11 6 22 12 ZW 1014,5 14 0,0
23.02.2017 13:00:00 17,7 7,4 21,5 9 5 13 7 W 1015,4 19 0,0
23.02.2017 12:00:00 15,2 7,7 15,8 6 4 11 6 NNW 1016,5 16 0,0
23.02.2017 11:00:00 12,2 6,7 10,3 6 4 10 5 NNW 1017,1 16 0,0
23.02.2017 10:00:00 9,3 6,0 6,9 4 2 7 4 NNW 1017,3 11 0,0
23.02.2017 09:00:00 6,1 4,9 0,0 0 0 4 2 N 1017,1 16 0,0
23.02.2017 08:00:00 1,9 1,0 - 4 2 5 3 NNW 1017,4 4,7 0,0
23.02.2017 07:00:00 0,7 -0,3 -1,2 3 2 7 4 WZW 1017,2 14 0,0
23.02.2017 06:00:00 1,8 0,8 -1,0 3 1 6 3 Z 1017,2 9 0,0
23.02.2017 05:00:00 2,1 0,9 -0,9 4 2 7 4 ONO 1017,2 13 0,0
23.02.2017 04:00:00 3,3 2,1 -0,5 2 1 7 4 NNO 1017,3 16 0,0
23.02.2017 03:00:00 3,5 2,0 -0,5 0 0 5 3 N 1018,1 12 0,0
23.02.2017 02:00:00 3,7 1,9 0,7 0 0 8 5 N 1018,2 17 0,0
23.02.2017 01:00:00 4,8 3,1 0,3 6 4 11 6 ONO 1018,5 34 0,0
23.02.2017 00:00:00 4,9 2,9 0,9 2 1 5 3 O 1018,6 33 0,0
22.02.2017 23:00:00 6,3 3,8 2,0 0 0 6 4 N 1018,8 46 0,0
22.02.2017 22:00:00 6,6 3,6 2,3 3 2 8 4 O 1019,1 43 0,0
22.02.2017 21:00:00 9,0 5,7 3,8 2 1 10 5 NW 1018,8 56 0,0
22.02.2017 20:00:00 12,9 5,1 6,2 0 0 20 11 N 1018,6 56 0,0
22.02.2017 19:00:00 14,0 6,1 7,3 5 3 17 9 NW 1018,3 49 0,0
22.02.2017 18:00:00 17,8 6,0 16,8 14 8 24 13 NW 1017,9 60 0,0
22.02.2017 17:00:00 19,1 5,2 20,6 21 12 35 19 NW 1017,8 60 0,0
22.02.2017 16:00:00 19,3 5,0 22,3 22 12 33 18 NW 1018,1 53 0,0
22.02.2017 15:00:00 19,5 5,5 22,4 23 12 36 19 NNW 1018,6 48 0,0
22.02.2017 14:00:00 19,1 5,9 21,9 25 14 38 20 NNW 1019,1 52 0,0
22.02.2017 13:00:00 18,9 5,3 19,8 21 11 37 20 N 1019,7 60 0,0
22.02.2017 12:00:00 17,3 6,8 18,6 26 14 39 21 NNW 1020,2 60 0,0
22.02.2017 11:00:00 16,3 7,8 15,7 21 11 44 24 N 1020,4 20 0,0
22.02.2017 10:00:00 14,1 8,5 12,4 16 9 31 17 NNW 1020,7 57 0,0
22.02.2017 09:00:00 12,0 7,3 8,9 8 4 22 12 NNW 1020,8 20 0,0
22.02.2017 08:00:00 10,2 6,3 7,9 18 10 29 16 N 1020,3 54 0,0
22.02.2017 07:00:00 9,8 6,3 7,3 8 4 22 12 NNW 1020,0 56 0,0
22.02.2017 06:00:00 10,7 7,4 7,9 14 7 27 14 NNW 1019,9 58 0,0
22.02.2017 05:00:00 10,5 7,2 8,8 16 9 28 15 NNW 1020,0 54 0,0
22.02.2017 04:00:00 11,6 7,7 10,0 18 10 32 17 NW 1019,9 56 0,0
22.02.2017 03:00:00 11,9 7,8 10,9 24 13 39 21 NNW 1020,0 60 0,0
22.02.2017 02:00:00 12,3 7,8 11,4 24 13 41 22 NW 1020,4 60 0,0
22.02.2017 01:00:00 12,4 7,9 11,3 29 16 44 24 NNW 1019,9 60 0,0
22.02.2017 00:00:00 12,8 7,9 11,0 18 10 35 19 NNW 1020,2 60 0,0
21.02.2017 23:00:00 13,3 7,7 12,0 20 11 49 27 NW 1020,3 60 0,0
21.02.2017 22:00:00 13,5 7,7 12,7 35 19 52 28 N 1020,0 60 0,0
21.02.2017 21:00:00 14,1 7,2 12,8 25 14 46 25 N 1020,3 60 0,0
21.02.2017 20:00:00 14,5 7,5 13,5 31 17 55 30 N 1020,2 60 0,0
21.02.2017 19:00:00 15,4 7,4 14,3 34 18 59 32 N 1020,0 60 0,0
21.02.2017 18:00:00 16,5 7,4 - 34 18 61 33 N 1019,5 50 0,0
21.02.2017 17:00:00 18,0 8,0 19,6 37 20 56 31 N 1018,8 33 0,0
21.02.2017 16:00:00 18,9 8,2 22,2 34 19 56 31 N 1019,0 27 0,0
21.02.2017 15:00:00 19,5 8,8 22,6 37 20 60 32 NNW 1019,0 29 0,0
21.02.2017 14:00:00 19,0 8,9 21,9 35 19 66 35 N 1019,9 37 0,0
21.02.2017 13:00:00 18,3 8,3 20,1 38 20 62 34 N 1020,9 50 0,0
21.02.2017 12:00:00 17,5 8,9 - 28 15 52 28 NNW 1021,4 55 0,0
21.02.2017 11:00:00 16,0 9,0 14,3 16 9 32 17 NNW 1022,4 60 0,0
21.02.2017 10:00:00 12,9 8,0 10,9 16 9 24 13 NNW 1022,6 43 0,0
21.02.2017 09:00:00 9,8 6,1 2,7 0 0 23 13 N 1023,1 19 0,0
21.02.2017 08:00:00 4,1 2,0 1,3 6 3 11 6 Z 1023,0 17 0,0
21.02.2017 07:00:00 3,9 1,8 0,6 3 1 9 5 O 1022,9 18 0,0
21.02.2017 06:00:00 4,6 1,6 1,8 4 2 10 5 ZO 1022,8 17 0,0
21.02.2017 05:00:00 7,9 3,5 4,2 0 0 16 9 N 1022,8 19 0,0
21.02.2017 04:00:00 9,2 3,6 5,4 8 5 26 14 NNO 1022,8 20 0,0
21.02.2017 03:00:00 9,9 3,6 8,4 18 10 33 18 N 1023,1 25 0,0
21.02.2017 02:00:00 10,3 3,8 8,3 18 10 31 17 N 1023,3 27 0,0
21.02.2017 01:00:00 10,5 3,7 8,9 21 12 30 16 N 1023,2 28 0,0
21.02.2017 00:00:00 10,6 3,6 8,9 16 9 31 17 N 1023,4 32 0,0
20.02.2017 23:00:00 11,2 3,2 9,0 21 12 33 18 NW 1023,6 36 0,0
20.02.2017 22:00:00 11,0 3,0 7,7 16 9 25 14 NNW 1023,4 45 0,0
20.02.2017 21:00:00 11,6 2,3 8,8 11 6 35 19 NNW 1023,3 59 0,0
20.02.2017 20:00:00 12,6 1,9 11,0 22 12 39 21 N 1022,7 60 0,0
20.02.2017 19:00:00 13,5 1,8 11,4 21 12 39 21 N 1022,3 60 0,0
20.02.2017 18:00:00 14,8 1,3 13,4 17 9 45 24 N 1021,9 60 0,0
20.02.2017 17:00:00 16,1 1,4 18,4 27 15 53 29 N 1021,7 41 0,0
20.02.2017 16:00:00 16,8 2,0 20,1 29 16 56 30 N 1021,8 34 0,0
20.02.2017 15:00:00 16,8 1,6 20,8 36 20 56 31 N 1022,0 35 0,0
20.02.2017 14:00:00 16,3 0,0 19,4 29 16 55 30 N 1022,6 39 0,0
20.02.2017 13:00:00 15,5 0,1 17,3 31 17 50 27 N 1023,2 36 0,0
20.02.2017 12:00:00 14,2 2,1 14,3 31 17 50 27 N 1023,7 35 0,0
20.02.2017 11:00:00 12,7 2,2 12,1 29 16 56 30 N 1024,2 38 0,0
20.02.2017 10:00:00 11,1 2,9 9,4 29 16 55 30 N 1024,0 20 0,0
20.02.2017 09:00:00 9,3 2,2 7,5 26 14 48 26 N 1023,6 20 0,0
20.02.2017 08:00:00 8,2 1,3 7,0 33 18 55 30 N 1023,4 30 0,0
20.02.2017 07:00:00 8,0 0,9 6,3 23 12 39 21 NNW 1023,3 36 0,0
20.02.2017 06:00:00 8,1 1,0 6,8 24 13 46 25 NNW 1023,5 28 0,0
20.02.2017 05:00:00 8,0 0,5 6,9 22 12 56 31 N 1023,3 34 0,0
20.02.2017 04:00:00 8,5 0,2 7,5 24 13 41 22 NNW 1023,4 44 0,0
20.02.2017 03:00:00 9,2 -0,7 7,9 21 12 41 22 NNW 1023,6 55 0,0
20.02.2017 02:00:00 9,2 0,4 7,3 17 9 32 18 NNW 1023,9 50 0,0
20.02.2017 01:00:00 9,9 2,7 0,3 9 5 24 13 NW 1023,9 39 0,0
20.02.2017 00:00:00 6,9 2,6 -0,1 4 2 11 6 N 1023,8 20 0,0
19.02.2017 23:00:00 5,8 4,0 -0,2 8 5 12 7 NW 1023,8 16 0,0
19.02.2017 22:00:00 5,9 3,7 1,2 2 1 6 3 NW 1023,7 13 0,0
19.02.2017 21:00:00 7,6 4,5 - 0 0 5 3 N 1023,7 16 0,0
19.02.2017 20:00:00 10,1 5,7 6,0 4 2 16 9 WZW 1023,8 20 0,0
19.02.2017 19:00:00 12,1 6,6 9,6 10 5 17 9 WZW 1023,5 29 0,0
19.02.2017 18:00:00 14,3 5,4 - 11 6 22 12 WZW 1023,2 40 0,0
19.02.2017 17:00:00 17,2 2,4 20,3 6 4 16 9 W 1023,2 56 0,0
19.02.2017 16:00:00 17,5 2,6 23,0 11 6 21 12 W 1023,7 53 0,0
19.02.2017 15:00:00 16,9 2,8 24,0 8 4 19 10 W 1024,4 52 0,0
19.02.2017 14:00:00 16,5 3,2 23,9 5 3 12 6 WNW 1025,1 40 0,0
19.02.2017 13:00:00 14,8 3,6 19,6 4 2 10 6 NNW 1026,2 20 0,0
19.02.2017 12:00:00 12,6 5,3 14,2 5 3 11 6 NNW 1027,2 19 0,0
19.02.2017 11:00:00 10,3 4,6 9,9 5 3 7 4 NNW 1027,5 18 0,0
19.02.2017 10:00:00 8,1 4,1 5,3 3 2 6 3 NNW 1027,5 19 0,0
19.02.2017 09:00:00 4,7 3,5 -1,6 0 0 4 2 N 1027,3 17 0,0
19.02.2017 08:00:00 0,4 -0,5 -3,3 0 0 4 2 N 1027,1 13 0,0
19.02.2017 07:00:00 -0,2 -1,2 -3,2 0 0 2 1 N 1026,5 13 0,0
19.02.2017 06:00:00 0,5 -0,6 -2,4 0 0 3 1 N 1026,3 9 0,0
19.02.2017 05:00:00 1,6 0,4 -1,5 0 0 5 3 N 1025,8 14 0,0
19.02.2017 04:00:00 1,8 0,5 -1,0 3 1 6 3 OZO 1025,5 15 0,0
19.02.2017 03:00:00 2,6 1,1 -0,8 0 0 5 3 N 1025,4 9 0,0
19.02.2017 02:00:00 3,5 2,0 -0,5 2 1 6 3 NNO 1025,1 14 0,0
19.02.2017 01:00:00 4,9 2,8 0,6 0 0 3 2 N 1024,8 11 0,0
19.02.2017 00:00:00 5,7 3,5 - 2 1 5 3 OZO 1024,6 18 0,0
18.02.2017 23:00:00 5,5 3,2 2,6 3 1 7 4 ZO 1024,3 15 0,0
18.02.2017 22:00:00 5,3 2,6 1,5 3 2 5 3 O 1023,9 20 0,0
18.02.2017 21:00:00 6,0 3,0 2,1 3 1 4 2 ZZO 1023,4 37 0,0
18.02.2017 20:00:00 7,1 3,3 2,5 2 1 7 4 OZO 1022,7 45 0,0
18.02.2017 19:00:00 10,1 4,5 - 2 1 8 4 ZO 1022,4 35 -
18.02.2017 18:00:00 13,1 4,5 9,8 7 4 11 6 N 1021,8 42 0,0
18.02.2017 17:00:00 16,2 5,2 19,3 9 5 16 9 NNW 1021,2 50 0,0
18.02.2017 16:00:00 16,9 4,2 22,7 8 5 18 10 NW 1021,0 44 0,0

tt = temperatuur
td = dauwpunt
tt 5cm = temperatuur 5cm
ff = windsnelheid
fx = windstoten
dd = windrichting
ppp = luchtdruk
vv = zicht
rr = neerslag

Weerstations in de omgeving